{"data":{"norad_id":67920,"intl_designator":"2026-036S","name":"STARLINK-36375","alt_names":[],"object_type":"PAYLOAD","status":"ACTIVE","operator":null,"country":"US","launch_date":"2026-02-22","launch_site_code":"AFETR","launch_vehicle":null,"mission":null,"orbit_class":"UNKNOWN","rcs_meters":null,"size_class":null,"mass_kg":null,"dimensions":null,"purposes":["comms"],"wikipedia_slug":null,"has_3d_model":false,"image_url":null,"decayed_at":null,"tle_current":{"epoch":"2026-05-24T18:28:19.019712Z","epoch_age_seconds":92047,"freshness":"FRESH","line1":"1 67920U 26036S   26144.76966458  .00012175  00000+0  45106-3 0  9993","line2":"2 67920  43.0017 175.9399 0001339 276.7679  83.3020 15.27591227 15355","mean_motion":15.27591227,"eccentricity":0.0001339,"inclination_deg":43.0017,"raan_deg":175.9399,"arg_perigee_deg":276.7679,"mean_anomaly_deg":83.302,"bstar":0.00045106,"rev_number":1535,"period_min":94.26605590214,"perigee_km":482.09677025177,"apogee_km":483.93418688553,"semimajor_km":6861.1524785687,"source":"CELESTRAK","updated_at":"2026-05-25T13:38:21.741013Z"}}}